Location: Peterborough
(44.3091°N, 78.3197°W)
Time: 05:48:08
(UTC-04:00)

Vanguard 2 - Pass Details

Date: 27 March 2023
Orbit: 552 x 2926 km, 32.9° (Epoch: 04 June)

Event Time Altitude Azimuth Distance (km) Brightness Sun altitude
Rises 05:01:07 0° 216° (SW) 6,561 - -21.9°
Reaches altitude 10° 05:05:59 10° 208° (SSW) 5,681 - -21.1°
Exits shadow 05:06:42 12° 206° (SSW) 5,560 11.4 -21.0°
Maximum altitude 05:20:43 34° 152° (SSE) 3,978 11.1 -18.7°
Drops below altitude 10° 05:33:38 10° 95° (E) 5,014 12.7 -16.6°
Sets 05:37:33 0° 87° (E) 5,734 13.5 -15.9°
